Weather in Lombok-Senggigi

Indonesia     8°29′18″S   116°02′30″E
temp.,
°C
wind,
m/s
gust,
m/s
humid.,
%
clouds,
%
prec.,
mm/h
press.,
hPa
HPBL,
m
28 november, sun
sun2823:00+27s3478100 0.0 1009370
02:00+27ssw4481100 0.2 1007423
05:00+27ssw5583100 0.3 1008604
08:00+27s6683100 1.0 1010615
11:00+27s667862 0.5 1009658
14:00+28ssw5577100 2.0 1007665
17:00+27ssw2279100 8.0 1007111
20:00+25e2290100 17.9 1009182
29 november, mon
mon2923:00+25sse3386100 1.8 1009249
02:00+25s4485100 2.2 1007362
05:00+26sse5583100 0.1 1007483
08:00+26se3480100 0.8 1010411
11:00+25sse2286100 1.6 1009335
14:00+24sw1184100 2.1 1008312
17:00+25ssw1180100 0.1 1007328
20:00+26ene2278100 0.1 1008337
30 november, tue
tue3023:00+26wnw1179100 0.5 1009284
02:00+26sse4481100 2.3 1007273
05:00+26s2278100 1.1 1007422
08:00+26sse1175100 1.3 1009372
11:00+27se1272100 0.6 1008275
14:00+27nnw3373100 0.8 1006565
17:00+26n1176100 0.1 1006487
20:00+26nne3280100 0.8 1009430
1 december, wed
wed123:00+26nne1181100 0.8 1009260
02:00+27sw4579100 1.2 1007575
05:00+26sse3378100 0.4 1007419
08:00+27ene2276100 0.4 1009504
11:00+27nne6681100 1.1 1009620
14:00+27n6777100 3.0 1006466
17:00+27nne8879100 3.6 1006551
20:00+27nne7780100 3.9 1009575
2 december, thu
thu223:00+27nne788293 0.0 1009599
02:00+28nne6777100 0.1 1007781
05:00+27nne8879100 2.0 1008614
08:00+27nne887681 3.1 1010611
11:00+28n7775100 0.0 1010517
14:00+28nne6778100 0.1 1008578
17:00+28n5573100 2.9 1008475
20:00+28n4573100 2.9 1010509